User: anonymous   Login
Location: La Bastide
(43.1661°N, 1.2755°E)
Time: 16:42:30
(UTC+00:00)
Language:

ACS3 Solar Sail - Orbit

View from above orbital plane
View from above orbital plane
View from above satellite
View from above satellite

Ground track
Ground track

The orbit is defined by the following mean orbital elements,

1 59588U          26073.24987397 +.00000000 +00000-0 +19992-1 0 00006
2 59588  97.2038  13.3367 0064005  65.6555 295.1274 13.89829207    05
Epoch (UTC): 14 March 2026 05:59:49
Eccentricity: 0.0064005
inclination: 97.2038°
perigee height: 882 km
apogee height: 976 km
right ascension of ascending node: 13.3367°
argument of perigee: 65.6555°
revolutions per day: 13.89829207
mean anomaly at epoch: 295.1274°

The dashed part of the orbit path shows where the satellite is in the earth's shadow,  

DLR